Date String (YYYY-MM-DD hh:mm:ss) UTC,Instrument flags,Ambient pressure (hPa),Sample flow (lpm),Bypass flow (lpm),Sample temperature (°C),Ambient temperature (°C),ASC tube jacket temperature (°C),LED temperature (°C),Box temperature (°C),Sample RH (%),Span deviation,Mass concentration (μg/m³),Mass concentration (μg/m³),Mass concentration (μg/m³)
DateTimeUTC,F1_M11,P_M11,Q1_M11,Q2_M11,T1_M11,T2_M11,T3_M11,T4_M11,T5_M11,U1_M11,ZSPAN_M11,X2_M11,X0_M11,X1_M11
2022-07-22 18:00:00,,0828.3,5.00,0.00,29.1,27.8,00.0,37.8,31.1,20.5,0000.0,0007.60,0019.20,0006.42
2022-07-22 18:01:00,,0828.3,5.00,0.00,29.2,27.7,00.0,37.8,31.1,19.0,0000.0,0007.70,0019.74,0006.44
2022-07-22 18:02:00,,0828.3,4.99,0.00,29.1,27.1,00.0,37.7,31.0,19.1,0000.0,0007.70,0020.02,0006.44
2022-07-22 18:03:00,,0828.3,5.01,0.00,29.1,27.0,00.0,37.7,31.0,19.4,0000.0,0007.68,0020.58,0006.45
2022-07-22 18:04:00,,0828.3,5.01,0.00,29.1,27.1,00.0,37.7,31.0,19.3,0000.0,0007.74,0020.54,0006.47
2022-07-22 18:05:00,,0828.2,4.98,0.00,29.1,27.2,00.0,37.7,31.0,18.7,0000.0,0007.74,0020.55,0006.48
2022-07-22 18:06:00,,0828.2,5.00,0.00,29.1,27.4,00.0,37.8,31.0,18.2,0000.0,0007.77,0021.04,0006.48
2022-07-22 18:07:00,,0828.2,5.00,0.00,29.1,27.6,00.0,37.8,31.0,18.9,0000.0,0007.82,0022.01,0006.49
2022-07-22 18:08:00,,0828.2,4.99,0.00,29.1,27.8,00.0,37.8,31.1,18.5,0000.0,0007.82,0021.45,0006.49
2022-07-22 18:09:00,,0828.1,5.01,0.00,29.2,27.9,00.0,37.8,31.2,19.4,0000.0,0007.87,0021.43,0006.51
2022-07-22 18:10:00,,0828.1,5.00,0.00,29.2,27.4,00.0,37.8,31.1,19.5,0000.0,0007.95,0021.41,0006.54
2022-07-22 18:11:00,,0828.1,5.00,0.00,29.1,27.0,00.0,37.7,31.0,20.4,0000.0,0008.03,0020.65,0006.56
2022-07-22 18:12:00,,0828.1,5.01,0.00,29.1,27.0,00.0,37.7,31.0,21.5,0000.0,0007.99,0020.59,0006.56
2022-07-22 18:13:00,,0828.1,4.99,0.00,29.1,27.1,00.0,37.7,31.0,21.2,0000.0,0008.00,0021.45,0006.59
2022-07-22 18:14:00,,0828.1,5.01,0.00,29.1,27.3,00.0,37.8,31.0,21.2,0000.0,0008.07,0020.33,0006.61
2022-07-22 18:15:00,,0828.1,5.00,0.00,29.1,27.5,00.0,37.8,31.0,21.1,0000.0,0008.07,0019.79,0006.63
2022-07-22 18:16:00,,0828.1,5.00,0.00,29.1,27.7,00.0,37.8,31.1,21.0,0000.0,0008.17,0020.12,0006.65
2022-07-22 18:17:00,,0828.1,5.00,0.00,29.2,27.9,00.0,37.8,31.1,21.0,0000.0,0008.25,0020.70,0006.68
2022-07-22 18:18:00,,0828.1,5.00,0.00,29.2,27.8,00.0,37.8,31.2,21.2,0000.0,0008.31,0020.28,0006.72
2022-07-22 18:19:00,,0828.0,5.00,0.00,29.2,27.2,00.0,37.8,31.1,21.5,0000.0,0008.38,0020.39,0006.76
2022-07-22 18:20:00,,0828.0,5.00,0.00,29.1,27.0,00.0,37.7,31.0,20.9,0000.0,0008.38,0020.38,0006.79
2022-07-22 18:21:00,,0828.0,5.00,0.00,29.1,27.1,00.0,37.7,31.0,20.4,0000.0,0008.38,0020.97,0006.81
2022-07-22 18:22:00,,0828.0,5.00,0.00,29.1,27.2,00.0,37.8,31.0,19.9,0000.0,0008.37,0021.80,0006.83
2022-07-22 18:23:00,,0828.0,5.01,0.00,29.1,27.4,00.0,37.8,31.0,19.8,0000.0,0008.40,0021.58,0006.84
2022-07-22 18:24:00,,0828.0,4.99,0.00,29.1,27.6,00.0,37.8,31.1,20.0,0000.0,0008.51,0021.02,0006.85
2022-07-22 18:25:00,,0828.0,5.01,0.00,29.2,27.8,00.0,37.8,31.1,20.0,0000.0,0008.56,0022.06,0006.86
2022-07-22 18:26:00,,0828.0,5.01,0.00,29.2,27.7,00.0,37.8,31.2,20.0,0000.0,0008.56,0022.54,0006.87
2022-07-22 18:27:00,,0827.9,4.99,0.00,29.2,27.1,00.0,37.7,31.1,19.7,0000.0,0008.52,0022.09,0006.87
2022-07-22 18:28:00,,0827.9,5.00,0.00,29.1,27.0,00.0,37.7,31.0,20.1,0000.0,0008.43,0021.98,0006.87
2022-07-22 18:29:00,,0828.0,5.00,0.00,29.1,27.0,00.0,37.7,31.0,20.7,0000.0,0008.36,0023.40,0006.86
2022-07-22 18:30:00,,0827.9,5.00,0.00,29.1,27.2,00.0,37.7,31.0,21.5,0000.0,0008.33,0024.63,0006.85
2022-07-22 18:31:00,,0827.9,5.00,0.00,29.1,27.4,00.0,37.8,31.0,22.7,0000.0,0008.30,0024.84,0006.85
2022-07-22 18:32:00,,0828.0,5.01,0.00,29.1,27.6,00.0,37.8,31.1,22.5,0000.0,0008.35,0024.63,0006.87
2022-07-22 18:33:00,,0827.9,5.00,0.00,29.1,27.8,00.0,37.8,31.1,22.5,0000.0,0008.42,0024.48,0006.89
2022-07-22 18:34:00,,0827.9,5.00,0.00,29.2,27.9,00.0,37.8,31.2,22.6,0000.0,0008.47,0024.81,0006.91
2022-07-22 18:35:00,,0827.9,5.00,0.00,29.2,27.5,00.0,37.8,31.2,22.6,0000.0,0008.47,0024.86,0006.91
2022-07-22 18:36:00,,0828.0,4.99,0.00,29.2,27.0,00.0,37.7,31.1,22.1,0000.0,0008.40,0024.40,0006.91
2022-07-22 18:37:00,,0828.0,5.00,0.00,29.2,27.0,00.0,37.7,31.0,22.0,0000.0,0008.44,0024.34,0006.94
2022-07-22 18:38:00,,0828.0,5.01,0.00,29.1,27.1,00.0,37.7,31.0,21.9,0000.0,0008.46,0025.35,0006.96
2022-07-22 18:39:00,,0827.9,5.01,0.00,29.1,27.3,00.0,37.8,31.0,21.7,0000.0,0008.55,0025.34,0006.98
2022-07-22 18:40:00,,0828.0,5.00,0.00,29.1,27.5,00.0,37.8,31.0,21.6,0000.0,0008.70,0024.44,0007.00
2022-07-22 18:41:00,,0828.0,5.00,0.00,29.1,27.7,00.0,37.8,31.1,21.5,0000.0,0008.72,0023.63,0007.01
2022-07-22 18:42:00,,0827.9,5.00,0.00,29.2,27.9,00.0,37.8,31.2,21.7,0000.9,0008.82,0024.14,0007.02
2022-07-22 18:43:00,,0827.9,5.02,0.00,29.2,27.5,00.0,37.8,31.1,21.3,0002.4,0008.83,0024.82,0007.01
2022-07-22 18:44:00,,0827.9,5.00,0.00,29.2,27.0,00.0,37.7,31.0,21.2,0002.6,0008.76,0025.61,0006.97
2022-07-22 18:45:00,,0827.9,5.01,0.00,29.1,27.0,00.0,37.7,31.0,21.3,0001.7,0008.72,0025.38,0006.94
2022-07-22 18:46:00,,0827.9,5.00,0.00,29.1,27.1,00.0,37.8,31.0,21.1,0000.0,0008.65,0026.52,0006.92
2022-07-22 18:47:00,,0827.9,5.00,0.00,29.1,27.3,00.0,37.8,31.0,21.3,0000.0,0008.66,0027.53,0006.90
2022-07-22 18:48:00,,0827.9,4.99,0.00,29.1,27.5,00.0,37.8,31.0,22.2,0000.0,0008.68,0028.63,0006.85
2022-07-22 18:49:00,,0827.9,5.00,0.00,29.1,27.7,00.0,37.8,31.1,22.2,0000.0,0008.70,0028.65,0006.82
2022-07-22 18:50:00,,0827.9,5.01,0.00,29.2,27.9,00.0,37.8,31.2,21.9,0001.5,0008.72,0029.04,0006.81
2022-07-22 18:51:00,,0827.9,4.99,0.00,29.2,27.8,00.0,37.8,31.2,21.9,0000.0,0008.65,0029.23,0006.79
2022-07-22 18:52:00,,0827.9,5.01,0.00,29.2,27.2,00.0,37.8,31.1,21.6,0000.0,0008.62,0030.63,0006.78
2022-07-22 18:53:00,,0827.9,4.98,0.00,29.2,27.0,00.0,37.7,31.0,21.9,0000.7,0008.53,0029.78,0006.75
2022-07-22 18:54:00,,0827.9,5.00,0.00,29.1,27.1,00.0,37.8,31.0,21.7,0002.7,0008.47,0028.94,0006.74
2022-07-22 18:55:00,,0827.9,5.01,0.00,29.1,27.2,00.0,37.8,31.0,21.9,0003.2,0008.51,0027.71,0006.75
2022-07-22 18:56:00,,0827.8,5.01,0.00,29.1,27.4,00.0,37.8,31.0,22.0,0003.1,0008.48,0027.68,0006.75
2022-07-22 18:57:00,,0827.8,5.00,0.00,29.1,27.6,00.0,37.8,31.1,22.2,0003.3,0008.48,0027.35,0006.75
2022-07-22 18:58:00,,0827.8,4.99,0.00,29.2,27.8,00.0,37.8,31.1,21.8,0003.1,0008.50,0027.68,0006.75
2022-07-22 18:59:00,,0827.9,5.00,0.00,29.2,27.8,00.0,37.8,31.2,22.2,0002.4,0008.48,0027.05,0006.75
